Weather History for Asheville, NC

Change the Weather History Date:

Friday, February 18, 2011

  Actual Average Record
Temperature  
Mean Temperature 55 °F 41 °F  
Max Temperature 71 °F 52 °F 72 °F (1897)
Min Temperature 39 °F 30 °F 0 °F (1958)
Degree Days  
Heating Degree Days 10 24  
Month to date heating degree days 460 461  
Since 1 July heating degree days 3308 2988  
Cooling Degree Days 0 0  
Month to date cooling degree days 0 0  
Year to date cooling degree days 0 0  
Growing Degree Days 4 (Base 50)    
Moisture  
Dew Point 45 °F    
Average Humidity 70    
Maximum Humidity 92    
Minimum Humidity 47    
Precipitation  
Precipitation T in 0.13 in 0.97 in (1940)
Month to date precipitation 1.96 2.42  
Year to date precipitation 4.08 6.09  
Snow  
Snow 0.00 in 0.10 in 8.60 in (1979)
Month to date snowfall 0.6 1.5  
Since 1 July snowfall 20.8 6.6  
Snow Depth 0.00 in    
Sea Level Pressure  
Sea Level Pressure 30.12 in    
Wind  
Wind Speed 6 mph (North)    
Max Wind Speed 31 mph    
Max Gust Speed 39 mph    
Visibility 10 miles    
Events      
T = Trace of Precipitation, MM = Missing Value Source: NWS Daily Summary

Daily Weather History Graph

Daily Weather History Graph

Search for Another Location

Airport:

Trip Planner

Search our weather history database for the weather conditions in past years. The results will help you decide how hot, cold, wet, or windy it might be!

Date:

Astronomy

Feb. 18, 2011 Rise Set
Actual Time 7:13 AM EST 6:15 PM EST
Civil Twilight 6:47 AM EST 6:40 PM EST
Nautical Twilight 6:18 AM EST 7:10 PM EST
Astronomical Twilight 5:48 AM EST 7:40 PM EST
Moon 7:02 PM EST (2/18) 7:04 AM EST (2/18)
Length of Visible Light 11h 53m
Length of Day
11h 01m
Full, 100% of the Moon is Illuminated
Feb 18
Full
Feb 24
Last Quarter
Mar 4
New
Mar 12
First Quarter
Mar 19
Full

Hourly Weather History & Observations

Time (EST) Temp. Windchill Dew Point Humidity Pressure Visibility Wind Dir Wind Speed Gust Speed Precip Events Conditions
12:54 AM 54.0 °F - 39.9 °F 59% 30.09 in 10.0 mi South 9.2 mph - N/A   Clear
1:54 AM 46.0 °F 44.8 °F 41.0 °F 83% 30.09 in 10.0 mi NNW 3.5 mph - N/A   Clear
2:54 AM 43.0 °F 39.5 °F 39.9 °F 89% 30.09 in 10.0 mi NNW 5.8 mph - N/A   Clear
3:54 AM 42.1 °F 40.2 °F 39.0 °F 89% 30.09 in 10.0 mi North 3.5 mph - N/A   Clear
4:54 AM 39.9 °F 36.7 °F 37.9 °F 93% 30.12 in 9.0 mi NNW 4.6 mph - N/A   Clear
5:54 AM 48.9 °F - 39.0 °F 69% 30.13 in 10.0 mi NNW 6.9 mph - N/A   Clear
6:54 AM 50.0 °F - 39.0 °F 66% 30.13 in 10.0 mi ENE 4.6 mph - N/A   Scattered Clouds
7:54 AM 48.0 °F - 39.9 °F 74% 30.14 in 10.0 mi West 3.5 mph - N/A   Clear
8:54 AM 53.1 °F - 42.1 °F 66% 30.13 in 10.0 mi Calm Calm - N/A   Clear
9:54 AM 62.1 °F - 44.1 °F 52% 30.11 in 10.0 mi East 3.5 mph - N/A   Clear
10:54 AM 64.0 °F - 46.0 °F 52% 30.10 in 10.0 mi Calm Calm - N/A   Clear
11:54 AM 66.9 °F - 46.0 °F 47% 30.09 in 10.0 mi NNW 12.7 mph - N/A   Clear
12:54 PM 70.0 °F - 48.0 °F 46% 30.08 in 10.0 mi North 9.2 mph - N/A   Mostly Cloudy
1:54 PM 66.2 °F - 50.0 °F 56% 30.12 in 10.0 mi North 16.1 mph 21.9 mph N/A   Overcast
2:54 PM 66.0 °F - 50.0 °F 56% 30.09 in 10.0 mi North 17.3 mph 24.2 mph N/A   Partly Cloudy
3:54 PM 64.4 °F - 48.2 °F 56% 30.12 in 10.0 mi North 8.1 mph - N/A   Mostly Cloudy
4:54 PM 66.0 °F - 48.9 °F 54% 30.11 in 10.0 mi North 9.2 mph - N/A   Overcast
5:54 PM 63.0 °F - 50.0 °F 63% 30.11 in 10.0 mi North 6.9 mph - N/A   Scattered Clouds
6:54 PM 61.0 °F - 51.1 °F 70% 30.14 in 10.0 mi NNW 9.2 mph - N/A   Mostly Cloudy
7:54 PM 59.0 °F - 51.1 °F 75% 30.15 in 10.0 mi Calm Calm - N/A   Overcast
8:54 PM 59.0 °F - 51.1 °F 75% 30.14 in 10.0 mi Calm Calm - N/A   Overcast
9:54 PM 57.9 °F - 51.1 °F 78% 30.13 in 10.0 mi NNE 3.5 mph - N/A   Overcast
10:54 PM 53.1 °F - 44.1 °F 71% 30.19 in 10.0 mi NNW 8.1 mph - 0.00 in   Overcast
11:54 PM 55.0 °F - 42.1 °F 62% 30.17 in 10.0 mi North 8.1 mph - N/A   Overcast